Altus, OK

3:02 PM CST on February 13, 2016 (GMT -0600)
Altus Air Force Base

Weather History for KLTS - October, 2011

Change the Weather History Date:

Monday, October 17, 2011

  Actual Average Record
Temperature  
Mean Temperature 67 °F -  
Max Temperature 78 °F 73 °F 89 °F (2005)
Min Temperature 56 °F 49 °F 36 °F (2013)
Cooling Degree Days 2    
Growing Degree Days 17 (Base 50)    
Moisture  
Dew Point 50 °F    
Average Humidity 61    
Maximum Humidity 95    
Minimum Humidity 36    
Precipitation  
Precipitation 0.01 in - - ()
Sea Level Pressure  
Sea Level Pressure 29.80 in    
Wind  
Wind Speed 10 mph (North)    
Max Wind Speed 29 mph    
Max Gust Speed 38 mph    
Visibility 10 miles    
Events      
Averages and records for this station are not official NWS values.
T = Trace of Precipitation, MM = Missing Value Source: NWS Daily Summary

Daily Weather History Graph

Daily Weather History Graph

Search for Another Location

Airport or City:

Trip Planner

Search our weather history database for the weather conditions in past years. The results will help you decide how hot, cold, wet, or windy it might be!

Date:

Astronomy

Oct. 17, 2011 Rise Set
Actual Time 7:44 AM CDT 7:00 PM CDT
Civil Twilight 7:18 AM CDT 7:25 PM CDT
Nautical Twilight 6:49 AM CDT 7:54 PM CDT
Astronomical Twilight 6:20 AM CDT 8:24 PM CDT
Moon 10:52 PM CDT (10/17) 12:41 PM CDT (10/17)
Length of Visible Light 12h 06m
Length of Day
11h 16m
Waning Gibbous, 74% of the Moon is Illuminated
Oct 17
Waning Gibbous
Oct 19
Last Quarter
Oct 26
New
Nov 2
First Quarter
Nov 10
Full

Hourly Weather History & Observations

Time (CDT) Temp. Dew Point Humidity Pressure Visibility Wind Dir Wind Speed Gust Speed Precip Events Conditions
12:55 AM 61.5 °F 57.0 °F 85% 29.86 in 10.0 mi NE 6.9 mph - N/A   Clear
1:55 AM 61.5 °F 56.1 °F 82% 29.84 in 10.0 mi NE 9.2 mph - N/A   Clear
2:55 AM 60.1 °F 55.4 °F 85% 29.83 in 10.0 mi NE 6.9 mph - N/A   Clear
3:55 AM 58.5 °F 55.2 °F 89% 29.81 in 10.0 mi East 5.8 mph - N/A   Clear
4:55 AM 59.0 °F 55.9 °F 90% 29.79 in 10.0 mi Calm Calm - N/A   Clear
5:55 AM 57.4 °F 55.4 °F 93% 29.79 in 10.0 mi SSE 4.6 mph - N/A   Clear
6:55 AM 56.5 °F 55.0 °F 95% 29.79 in 10.0 mi SSE 5.8 mph - N/A   Clear
7:55 AM 56.3 °F 54.3 °F 93% 29.77 in 10.0 mi South 5.8 mph - N/A   Clear
8:55 AM 60.6 °F 55.6 °F 83% 29.78 in 10.0 mi NW 4.6 mph - N/A   Clear
9:55 AM 66.7 °F 54.7 °F 65% 29.78 in 10.0 mi WSW 6.9 mph - N/A   Clear
10:55 AM 69.6 °F 55.0 °F 60% 29.77 in 10.0 mi West 8.1 mph - N/A   Clear
11:55 AM 70.7 °F 52.5 °F 52% 29.75 in 10.0 mi WNW 8.1 mph - N/A   Clear
12:55 PM 72.9 °F 52.3 °F 48% 29.72 in 10.0 mi West 6.9 mph - N/A   Clear
1:55 PM 74.8 °F 51.1 °F 43% 29.68 in 10.0 mi Variable 6.9 mph - N/A   Mostly Cloudy
2:55 PM 76.5 °F 51.1 °F 41% 29.66 in 10.0 mi NNW 8.1 mph - N/A   Clear
3:55 PM 77.7 °F 50.9 °F 39% 29.68 in 10.0 mi NNW 10.4 mph - N/A   Clear
4:55 PM 78.1 °F 50.9 °F 39% 29.69 in 10.0 mi NNW 15.0 mph - N/A   Clear
5:55 PM 74.3 °F 49.6 °F 42% 29.75 in 10.0 mi North 19.6 mph 34.5 mph N/A   Partly Cloudy
6:55 PM 70.9 °F 46.4 °F 42% 29.82 in 10.0 mi North 27.6 mph 33.4 mph N/A   Clear
7:55 PM 68.2 °F 43.3 °F 41% 29.87 in 10.0 mi North 28.8 mph 38.0 mph 0.01 in   Clear
8:55 PM 65.3 °F 39.7 °F 39% 29.88 in 10.0 mi North 25.3 mph 31.1 mph N/A   Scattered Clouds
9:55 PM 61.9 °F 36.3 °F 39% 29.91 in 10.0 mi North 20.7 mph 31.1 mph N/A   Clear
10:55 PM 59.9 °F 32.9 °F 36% 29.94 in 10.0 mi North 28.8 mph 36.8 mph N/A   Scattered Clouds
11:55 PM 57.7 °F 34.2 °F 41% 29.98 in 10.0 mi North 20.7 mph 31.1 mph N/A   Clear